FW3855 Weather Reports


Display with metric or nautical units.
time (UTC)temp
F
wind
direction
speed
MPH
gust
MPH
rain 1hr
in
rain 24hr
in
rain mn
in
humidity
%
barometer
mb
20260509080739 77 200 6.0 16.0 0.00 0.00 0.00 4 1015.8
20260509080233 77 202 6.0 15.0 0.00 0.00 0.00 4 1015.8
20260509075728 77 244 6.0 18.0 0.00 0.00 0.00 4 1015.8
20260509075225 77 206 5.0 18.0 0.00 0.00 0.00 4 1015.9
20260509074712 77 196 5.0 12.0 0.00 0.00 0.00 3 1015.9
20260509074208 77 233 5.0 15.0 0.00 0.00 0.00 3 1015.9
20260509073702 77 282 5.0 15.0 0.00 0.00 0.00 3 1015.8
20260509073159 77 227 5.0 10.0 0.00 0.00 0.00 3 1015.9
20260509072652 77 184 5.0 12.0 0.00 0.00 0.00 3 1015.9
20260509072142 77 225 4.0 11.0 0.00 0.00 0.00 3 1015.9
20260509071636 77 154 3.0 9.0 0.00 0.00 0.00 3 1015.9
20260509070622 78 302 5.0 13.0 0.00 0.00 0.00 3 1015.9
20260509070127 78 221 5.0 13.0 0.00 0.00 0.00 3 1015.9
20260509065114 78 268 4.0 12.0 0.00 0.00 0.00 3 1015.9
20260509064109 78 215 5.0 11.0 0.00 0.00 0.00 3 1015.9
20260509063612 78 178 6.0 14.0 0.00 0.00 0.00 3 1015.9
20260509063109 78 193 7.0 18.0 0.00 0.00 0.00 3 1015.9
20260509062611 78 162 6.0 18.0 0.00 0.00 0.00 3 1016.0
20260509062107 78 184 4.0 16.0 0.00 0.00 0.00 3 1015.9
20260509061632 78 223 3.0 10.0 0.00 0.00 0.00 3 1015.9
20260509060612 78 159 5.0 16.0 0.00 0.00 0.00 3 1015.9
20260509060111 78 193 5.0 14.0 0.00 0.00 0.00 3 1015.9
20260509055616 78 215 6.0 14.0 0.00 0.00 0.00 3 1015.9
20260509055110 78 172 6.0 15.0 0.00 0.00 0.00 3 1016.0
20260509054609 78 175 5.0 15.0 0.00 0.00 0.00 3 1016.0
20260509054106 78 179 5.0 12.0 0.00 0.00 0.00 3 1016.0
20260509053613 78 223 5.0 12.0 0.00 0.00 0.00 3 1016.0
20260509053102 78 98 4.0 11.0 0.00 0.00 0.00 4 1016.1
20260509052609 78 160 5.0 12.0 0.00 0.00 0.00 4 1016.0
20260509052056 78 183 5.0 12.0 0.00 0.00 0.00 3 1016.1
20260509051557 78 252 6.0 15.0 0.00 0.00 0.00 4 1016.1
20260509051057 78 196 6.0 15.0 0.00 0.00 0.00 4 1016.2
20260509050553 78 143 4.0 10.0 0.00 0.00 0.00 4 1016.1
20260509050058 78 212 4.0 12.0 0.00 0.00 0.00 4 1016.1
20260509045554 78 163 4.0 12.0 0.00 0.00 0.00 5 1016.1
20260509045053 78 241 3.0 8.0 0.00 0.00 0.00 5 1016.1
20260509044553 78 161 3.0 8.0 0.00 0.00 0.00 5 1016.1
20260509044047 78 196 3.0 8.0 0.00 0.00 0.00 5 1016.1
20260509043549 78 165 3.0 8.0 0.00 0.00 0.00 5 1016.0
20260509043052 78 180 4.0 11.0 0.00 0.00 0.00 6 1016.0
20260509042546 78 181 4.0 12.0 0.00 0.00 0.00 5 1016.0
20260509042047 78 193 3.0 12.0 0.00 0.00 0.00 5 1015.9
20260509041545 78 230 3.0 10.0 0.00 0.00 0.00 6 1015.8
20260509041048 78 176 3.0 10.0 0.00 0.00 0.00 6 1015.8
20260509040545 78 236 2.0 5.0 0.00 0.00 0.00 6 1015.8
20260509040045 78 218 3.0 12.0 0.00 0.00 0.00 6 1015.7
20260509035046 78 127 2.0 8.0 0.00 0.00 0.00 6 1015.7
20260509034546 78 236 2.0 8.0 0.00 0.00 0.00 6 1015.6
20260509034044 78 199 2.0 6.0 0.00 0.00 0.00 6 1015.4
20260509033554 79 182 3.0 6.0 0.00 0.00 0.00 6 1015.4
20260509033045 79 202 4.0 10.0 0.00 0.00 0.00 6 1015.3
20260509032548 80 245 3.0 10.0 0.00 0.00 0.00 5 1015.3
20260509032045 80 238 2.0 8.0 0.00 0.00 0.00 6 1015.2
20260509031047 80 250 2.0 7.0 0.00 0.00 0.00 6 1015.1
20260509030544 79 311 1.0 6.0 0.00 0.00 0.00 6 1015.1
20260509030043 80 219 1.0 5.0 0.00 0.00 0.00 6 1015.1
20260509025551 80 207 2.0 8.0 0.00 0.00 0.00 6 1015.0
20260509025044 80 244 3.0 8.0 0.00 0.00 0.00 6 1015.0
20260509023601 81 243 3.0 10.0 0.00 0.00 0.00 5 1014.9
20260509022552 81 53 4.0 9.0 0.00 0.00 0.00 5 1014.6
20260509022051 82 262 4.0 9.0 0.00 0.00 0.00 5 1014.6
20260509020035 83 245 1.0 5.0 0.00 0.00 0.00 3 1014.5
20260509015534 83 290 1.0 7.0 0.00 0.00 0.00 3 1014.5
20260509015033 84 289 2.0 7.0 0.00 0.00 0.00 2 1014.4
20260509014532 85 229 2.0 7.0 0.00 0.00 0.00 2 1014.4
20260509014040 86 310 3.0 9.0 0.00 0.00 0.00 1 1014.3
20260509013534 86 287 3.0 9.0 0.00 0.00 0.00 1 1014.3
20260509013036 87 307 2.0 7.0 0.00 0.00 0.00 1 1014.3
20260509012034 87 294 4.0 9.0 0.00 0.00 0.00 1 1014.3
20260509010533 87 3 4.0 10.0 0.00 0.00 0.00 1 1014.3
20260509010029 87 294 4.0 10.0 0.00 0.00 0.00 1 1014.4
20260509005524 87 235 4.0 10.0 0.00 0.00 0.00 1 1014.2
20260509005020 87 20 3.0 9.0 0.00 0.00 0.00 1 1014.3
20260509004512 87 309 4.0 8.0 0.00 0.00 0.00 1 1014.3
20260509004007 88 298 5.0 15.0 0.00 0.00 0.00 1 1014.3
20260509003501 88 309 6.0 15.0 0.00 0.00 0.00 1 1014.5
20260509003002 88 283 4.0 15.0 0.00 0.00 0.00 1 1014.4
20260509002447 89 332 2.0 9.0 0.00 0.00 0.00 1 1014.4
20260509001941 88 327 3.0 10.0 0.00 0.00 0.00 1 1014.3
20260509001436 88 303 5.0 13.0 0.00 0.00 0.00 1 1014.4
20260509000930 88 314 4.0 13.0 0.00 0.00 0.00 1 1014.5
20260509000425 89 306 4.0 10.0 0.00 0.00 0.00 1 1014.4
20260508235919 88 285 6.0 12.0 0.00 0.00 0.00 1 1014.5
20260508235413 88 311 5.0 13.0 0.00 0.00 0.00 1 1014.5
20260508234907 89 358 4.0 13.0 0.00 0.00 0.00 1 1014.5
20260508233347 89 293 3.0 7.0 0.00 0.00 0.00 1 1014.6
20260508232843 88 330 5.0 14.0 0.00 0.00 0.00 1 1014.5
20260508231830 88 285 5.0 11.0 0.00 0.00 0.00 1 1014.6
20260508230312 88 290 4.0 9.0 0.00 0.00 0.00 1 1014.8
20260508225306 88 278 7.0 15.0 0.00 0.00 0.00 1 1014.9
20260508224755 89 288 5.0 15.0 0.00 0.00 0.00 1 1014.8
20260508224247 89 314 4.0 9.0 0.00 0.00 0.00 1 1014.8
20260508223744 88 354 4.0 9.0 0.00 0.00 0.00 1 1014.9
20260508223236 88 94 5.0 11.0 0.00 0.00 0.00 1 1014.9
20260508222729 88 309 7.0 14.0 0.00 0.00 0.00 1 1015.1
20260508221213 88 31 6.0 13.0 0.00 0.00 0.00 1 1015.1
20260508220706 89 319 6.0 16.0 0.00 0.00 0.00 1 1015.2
20260508215653 88 318 5.0 12.0 0.00 0.00 0.00 1 1015.2
20260508215147 88 330 4.0 11.0 0.00 0.00 0.00 1 1015.4
20260508214641 89 340 5.0 11.0 0.00 0.00 0.00 1 1015.4
20260508214136 89 333 5.0 16.0 0.00 0.00 0.00 1 1015.6
20260508213632 89 340 3.0 16.0 0.00 0.00 0.00 1 1015.6
20260508212617 89 316 4.0 9.0 0.00 0.00 0.00 1 1015.9
20260508212112 89 259 5.0 15.0 0.00 0.00 0.00 1 1016.0
20260508211605 88 290 6.0 15.0 0.00 0.00 0.00 1 1016.0
20260508211100 89 340 4.0 10.0 0.00 0.00 0.00 1 1016.0
20260508210553 89 10 3.0 11.0 0.00 0.00 0.00 1 1016.1
20260508210049 89 287 4.0 11.0 0.00 0.00 0.00 1 1016.2
20260508205541 88 124 4.0 10.0 0.00 0.00 0.00 1 1016.4
20260508205038 88 162 5.0 15.0 0.00 0.00 0.00 1 1016.4
20260508203521 87 203 5.0 11.0 0.00 0.00 0.00 1 1016.6
20260508202507 87 56 6.0 14.0 0.00 0.00 0.00 1 1016.5
20260508201959 86 347 6.0 14.0 0.00 0.00 0.00 1 1016.5
20260508200442 86 293 5.0 14.0 0.00 0.00 0.00 1 1016.7
20260508195936 86 259 6.0 14.0 0.00 0.00 0.00 1 1016.8
20260508195429 87 303 6.0 14.0 0.00 0.00 0.00 1 1016.8
20260508194926 87 17 5.0 14.0 0.00 0.00 0.00 1 1016.8
20260508193911 86 291 5.0 12.0 0.00 0.00 0.00 1 1016.8
20260508193406 86 280 5.0 12.0 0.00 0.00 0.00 1 1016.9
20260508192901 86 6 4.0 10.0 0.00 0.00 0.00 2 1016.9
20260508192354 87 317 3.0 9.0 0.00 0.00 0.00 1 1017.0
20260508191352 86 45 4.0 14.0 0.00 0.00 0.00 2 1017.0
20260508190853 85 283 4.0 14.0 0.00 0.00 0.00 2 1017.0
20260508190354 85 296 6.0 14.0 0.00 0.00 0.00 2 1017.2
20260508185850 85 11 6.0 14.0 0.00 0.00 0.00 2 1017.2
20260508185350 86 281 5.0 11.0 0.00 0.00 0.00 2 1017.2
20260508184853 85 294 6.0 19.0 0.00 0.00 0.00 2 1017.3
20260508184351 85 5 4.0 19.0 0.00 0.00 0.00 2 1017.4
20260508183853 84 249 5.0 14.0 0.00 0.00 0.00 3 1017.3
20260508183349 83 229 7.0 15.0 0.00 0.00 0.00 3 1017.4
20260508182854 83 314 6.0 15.0 0.00 0.00 0.00 2 1017.5
20260508182354 84 291 5.0 12.0 0.00 0.00 0.00 2 1017.4
20260508181851 84 287 4.0 11.0 0.00 0.00 0.00 2 1017.4
20260508180848 84 259 4.0 11.0 0.00 0.00 0.00 2 1017.5
20260508180348 84 303 4.0 14.0 0.00 0.00 0.00 2 1017.6
20260508175843 83 274 5.0 14.0 0.00 0.00 0.00 2 1017.6
20260508175344 83 271 5.0 13.0 0.00 0.00 0.00 3 1017.6
20260508174344 84 339 4.0 9.0 0.00 0.00 0.00 2 1017.6
20260508173847 84 198 4.0 9.0 0.00 0.00 0.00 3 1017.6
20260508172844 82 309 4.0 11.0 0.00 0.00 0.00 3 1017.6
20260508171843 83 291 3.0 11.0 0.00 0.00 0.00 3 1017.6
20260508171344 83 195 2.0 7.0 0.00 0.00 0.00 3 1017.6
20260508170847 82 300 3.0 8.0 0.00 0.00 0.00 3 1017.6
20260508165850 81 288 3.0 8.0 0.00 0.00 0.00 4 1017.6
20260508165350 81 287 3.0 10.0 0.00 0.00 0.00 4 1017.7
20260508164842 82 294 2.0 10.0 0.00 0.00 0.00 3 1017.7
20260508164343 82 250 2.0 8.0 0.00 0.00 0.00 4 1017.7
20260508163340 82 264 3.0 7.0 0.00 0.00 0.00 4 1017.7
20260508162839 81 262 3.0 10.0 0.00 0.00 0.00 4 1017.6
20260508162338 81 326 3.0 10.0 0.00 0.00 0.00 4 1017.6
20260508161841 82 258 3.0 9.0 0.00 0.00 0.00 4 1017.5
20260508161337 81 274 2.0 9.0 0.00 0.00 0.00 4 1017.5
20260508160838 82 290 2.0 10.0 0.00 0.00 0.00 4 1017.5
20260508160334 81 186 3.0 10.0 0.00 0.00 0.00 4 1017.5
20260508155835 80 200 2.0 6.0 0.00 0.00 0.00 5 1017.4
20260508154832 81 344 2.0 6.0 0.00 0.00 0.00 4 1017.4
20260508154333 80 122 2.0 7.0 0.00 0.00 0.00 4 1017.5
20260508153830 81 288 3.0 7.0 0.00 0.00 0.00 4 1017.5
20260508153335 81 295 3.0 8.0 0.00 0.00 0.00 4 1017.4
20260508152830 80 186 2.0 8.0 0.00 0.00 0.00 4 1017.4
20260508151834 80 298 2.0 5.0 0.00 0.00 0.00 5 1017.4
20260508150834 80 294 2.0 6.0 0.00 0.00 0.00 5 1017.4
20260508145832 80 218 2.0 7.0 0.00 0.00 0.00 5 1017.4
20260508145331 79 269 3.0 9.0 0.00 0.00 0.00 5 1017.4
20260508144825 79 217 4.0 9.0 0.00 0.00 0.00 6 1017.3
20260508144326 79 191 3.0 9.0 0.00 0.00 0.00 6 1017.4
20260508143829 79 134 2.0 7.0 0.00 0.00 0.00 5 1017.4
20260508143326 78 276 2.0 6.0 0.00 0.00 0.00 5 1017.4
20260508142817 77 136 3.0 6.0 0.00 0.00 0.00 5 1017.3
20260508142312 77 164 3.0 8.0 0.00 0.00 0.00 5 1017.3
20260508141807 77 169 4.0 9.0 0.00 0.00 0.00 6 1017.2
20260508141259 77 229 4.0 9.0 0.00 0.00 0.00 6 1017.0
20260508140754 76 188 4.0 9.0 0.00 0.00 0.00 7 1017.0
20260508140249 76 101 4.0 9.0 0.00 0.00 0.00 7 1016.9
20260508135742 76 174 4.0 10.0 0.00 0.00 0.00 7 1016.9
20260508135237 75 192 5.0 10.0 0.00 0.00 0.00 7 1016.9
20260508134731 75 169 4.0 10.0 0.00 0.00 0.00 7 1016.9
20260508134224 74 162 4.0 10.0 0.00 0.00 0.00 8 1016.8
20260508133718 74 159 3.0 7.0 0.00 0.00 0.00 8 1016.8
20260508133211 74 214 2.0 8.0 0.00 0.00 0.00 8 1016.8
20260508132201 72 206 2.0 7.0 0.00 0.00 0.00 8 1016.7
20260508131653 71 173 2.0 6.0 0.00 0.00 0.00 9 1016.6
20260508131148 71 199 2.0 6.0 0.00 0.00 0.00 9 1016.6
20260508130640 71 183 3.0 6.0 0.00 0.00 0.00 8 1016.6
20260508130135 70 172 2.0 6.0 0.00 0.00 0.00 8 1016.5
20260508125628 70 123 2.0 5.0 0.00 0.00 0.00 8 1016.5
20260508125124 70 247 2.0 5.0 0.00 0.00 0.00 8 1016.5
20260508124110 70 153 2.0 6.0 0.00 0.00 0.00 8 1016.4
20260508123604 70 215 2.0 6.0 0.00 0.00 0.00 8 1016.2
20260508123059 70 224 2.0 6.0 0.00 0.00 0.00 8 1016.2
20260508122551 70 169 3.0 9.0 0.00 0.00 0.00 8 1016.2
20260508121033 70 203 4.0 10.0 0.00 0.00 0.00 8 1016.2
20260508120531 70 200 4.0 10.0 0.00 0.00 0.00 8 1016.2
20260508120024 69 219 3.0 6.0 0.00 0.00 0.00 8 1016.1
20260508115519 69 208 3.0 6.0 0.00 0.00 0.00 8 1016.2
20260508115015 70 169 3.0 8.0 0.00 0.00 0.00 7 1016.1
20260508114506 70 155 3.0 8.0 0.00 0.00 0.00 7 1016.1
20260508113454 70 196 1.0 5.0 0.00 0.00 0.00 7 1016.2
20260508112946 70 240 2.0 6.0 0.00 0.00 0.00 6 1016.2
20260508112442 71 260 2.0 6.0 0.00 0.00 0.00 6 1016.2
20260508111933 70 188 3.0 10.0 0.00 0.00 0.00 6 1016.0
20260508111427 70 230 3.0 10.0 0.00 0.00 0.00 6 1016.0
20260508110922 70 164 3.0 9.0 0.00 0.00 0.00 6 1016.1
20260508110417 71 224 2.0 8.0 0.00 0.00 0.00 6 1016.1
20260508105909 71 147 2.0 5.0 0.00 0.00 0.00 6 1016.1
20260508105406 71 210 2.0 8.0 0.00 0.00 0.00 6 1016.2
20260508104900 72 292 3.0 10.0 0.00 0.00 0.00 6 1016.4
20260508104359 72 274 4.0 12.0 0.00 0.00 0.00 6 1016.2
20260508103845 72 227 3.0 12.0 0.00 0.00 0.00 6 1016.4
20260508102833 71 284 2.0 9.0 0.00 0.00 0.00 6 1016.2
20260508102330 71 252 2.0 7.0 0.00 0.00 0.00 6 1016.1
20260508101315 70 255 2.0 4.0 0.00 0.00 0.00 6 1016.2
20260508100810 70 226 2.0 7.0 0.00 0.00 0.00 6 1016.2
20260508095252 70 233 2.0 5.0 0.00 0.00 0.00 5 1016.2
20260508094746 70 175 2.0 4.0 0.00 0.00 0.00 4 1016.4
20260508094246 70 163 2.0 4.0 0.00 0.00 0.00 3 1016.4
20260508093745 70 216 1.0 4.0 0.00 0.00 0.00 3 1016.4
20260508092747 71 185 2.0 7.0 0.00 0.00 0.00 2 1016.5
20260508092246 71 246 2.0 7.0 0.00 0.00 0.00 2 1016.2
20260508091743 71 133 1.0 6.0 0.00 0.00 0.00 2 1016.2
20260508090242 72 188 2.0 10.0 0.00 0.00 0.00 2 1016.2
20260508085741 71 221 1.0 10.0 0.00 0.00 0.00 2 1016.4
20260508085241 71 125 1.0 6.0 0.00 0.00 0.00 1 1016.4
20260508084746 72 103 1.0 7.0 0.00 0.00 0.00 1 1016.5
20260508083745 73 242 4.0 10.0 0.00 0.00 0.00 2 1016.5
20260508083248 73 282 5.0 11.0 0.00 0.00 0.00 2 1016.5
20260508082738 73 101 4.0 11.0 0.00 0.00 0.00 1 1016.6
20260508082229 73 220 4.0 11.0 0.00 0.00 0.00 1 1016.5
20260508081722 73 283 4.0 11.0 0.00 0.00 0.00 2 1016.5
20260508081221 73 267 4.0 10.0 0.00 0.00 0.00 2 1016.5